Tracking 27079 objects as of 23-Mar-2023
HD Live streaming from Space Station
objects crossing your sky now

EKRAN 6

Track EKRAN 6 now!
EKRAN 6 is classified as:


NORAD ID: 12120
Int'l Code: 1980-104A
Perigee: 35,767.4 km
Apogee: 35,825.6 km
Inclination: 9.1 °
Period: 1,436.2 minutes
Semi major axis: 42167 km
RCS: 6.3095 m2 (large)
Launch date: December 26, 1980
Source: Commonwealth of Independent States (former USSR) (CIS)
Launch site: TYURATAM MISSILE AND SPACE COMPLEX (TTMTR)
Your satellite tracking list
Your tracking list is empty




NASA's NSSDC Master Catalog

Two Line Element Set (TLE):
1 12120U 80104A   23082.57202119 -.00000309  00000-0  00000-0 0  9994
2 12120   9.0612 302.3480 0006903  69.0376 112.7327  1.00261815115560
Source of the keplerian elements: AFSPC